OneWeb SL0583

operational
NORAD ID: 54650 Int'l Des: 2022-166 Owner: ONEWEBN Country: UK Constellation: oneweb
LEOCIRCULARPOLARONEWEB_TYPE

Über OneWeb SL0583

Beschreibung wird geladen...

Live-Position

3D-Globus wird geladen...

Nächste Überflüge

Höhenverlauf

Altitude vs Time

uPlot chart will show altitude changes over time

Zweizeiliger Elementsatz

1 54650U 22166J 25299.24086762 .00000198 00000-0 44820-3 0 9998
2 54650 87.9165 290.6794 0001746 89.5836 270.5498 13.21824840140623
Epoch: 26. Okt. 2025 • Age: 7 hours

Aktueller Status

Höhe 1180.2 km
Geschwindigkeit 7.27 km/s
Subsatellitenpunkt 24.99°N, 58.82°E
Startdatum 8. Dez. 2022
Alter 2.8 years
Typ internet

Technische Details

Klassifizierung Payload
Masse 148.00 kg
Trockenmasse 140.00 kg
Gesamtmasse 148.00 kg
Länge 1.30 m
Durchmesser 1.00 m
Spannweite 5.00 m
Form Trapezoid+2 pan
Hersteller ONEWUS
Bus-Typ ARROW
Phasenstatus In Orbit
Besitzer/Staat ONEWEBN/UK

Große Konstellationen

Loading constellations...